Regional Weather Roundup
Issued by NWS Cleveland, OH

Home | Current Version | Previous Version | Text Only | Print | Product List | Glossary On
Versions: 1 2 3 4 5 6 7 8 9 10 11 12 13 14 15 16 17 18 19 20 21 22 23 24 25 26 27 28 29 30 31 32 33 34 35 36 37 38 39 40 41 42 43 44 45 46 47 48 49 50
000
ASUS41 KCLE 180602
RWRCLE
OHIO REGIONAL WEATHER ROUNDUP
NATIONAL WEATHER SERVICE CLEVELAND, OH
200 AM EDT FRI AUG 18 2017

NOTE: "FAIR" INDICATES FEW OR NO CLOUDS BELOW 12,000 FEET WITH NO
SIGNIFICANT WEATHER AND/OR OBSTRUCTIONS TO VISIBILITY.

OHZ001>008-015>018-024>027-034-035-043-044-180700-
   NORTHWEST OHIO

CITY           SKY/WX    TMP DP  RH WIND       PRES   REMARKS
DEFIANCE       CLEAR     69  65  86 S7        29.78F
FINDLAY        CLEAR     71  66  84 S8        29.79F
TOLEDO EXPRESS CLEAR     70  68  93 SW8       29.76F
TOLEDO EXEC    CLEAR     72  69  90 SW9       29.77F
LIMA           PTCLDY    72  69  90 S6        29.82F
$$

OHZ009>014-019>023-028>033-038-089-180700-
   NORTHEAST OHIO

CITY           SKY/WX    TMP DP  RH WIND       PRES   REMARKS
CLE-HOPKINS    PTCLDY    76  72  87 SW8       29.81F
CLE-LAKEFRONT  PTCLDY    76  70  82 S12       29.78F
CUY CO. ARPT   NOT AVBL
LORAIN-ELYRIA  CLEAR     73  67  81 SW8       29.80F
ASHTABULA      CLOUDY    73  72  96 SW10      29.81F
AKRON-CANTON   MOCLDY    73  69  87 SW8       29.84F
WOOSTER        PTCLDY    71  70  96 SW5       29.84F
MANSFIELD      PTCLDY    73  71  93 SW9       29.84F
YOUNGSTOWN     PTCLDY    73  70  90 SW8       29.84S
$$

OHZ042-051>053-060>062-070>072-077>081-180700-
  SOUTHWEST OHIO

CITY           SKY/WX    TMP DP  RH WIND       PRES   REMARKS
CINC-COVINGTON CLOUDY    74  74 100 SW8       29.86F
CINC-LUNKEN    CLOUDY    75  74  96 SW7       29.86F
HAMILTON       CLOUDY    75  74  96 SW7       29.86F
DAYTON         PTCLDY    73  72  96 SW8       29.86F
WRIGHT-PAT AFB PTCLDY    74  74  99 SW8       29.85S
DAYTON GENERAL CLOUDY    74  72  93 SW6       29.85F
WILMINGTON     CLOUDY    73  73 100 SW9       29.86F
$$

OHZ036-037-039>041-045>050-054>059-063>069-073>076-082>088-180700-
  CENTRAL AND SOUTHEAST OHIO

CITY           SKY/WX    TMP DP  RH WIND       PRES   REMARKS
COLUMBUS       CLOUDY    75  74  96 S5        29.84F
OSU AIRPORT    CLOUDY    75  74  96 SW9       29.84F
BOLTON FIELD   CLOUDY    73  71  91 SW6       29.85F
RICKENBACK AFB CLOUDY    73  73 100 S8        29.84F
NEWARK         LGT RAIN  74  72  93 SW6       29.84F
MARION         PTCLDY    73  70  90 SW8       29.83F
LANCASTER      CLOUDY    74  74 100 S6        29.86F
ZANESVILLE     LGT RAIN  73  71  93 S5        29.86F
NEW PHILLY     NOT AVBL
$$




USA.gov is the U.S. government's official web portal to all federal, state and local government web resources and services.